星链-31610 (STARLINK-31610 )

导读

STARLINK-31610是美国SpaceX星链(Starlink)星座的卫星,属于G6-48批次二代星链V2.0 Mini卫星,于2024年4月10日由猎鹰九号运载火箭在卡纳维拉尔角太空军基地发射入轨。它属于低轨通信卫星,搭载先进通信载荷,可提供宽带互联网服务,设计使用寿命超5年,寿命末期将脱轨坠入大气层烧毁。

基本信息
目录编号:
59473
目录名称:
STARLINK-31610
国际标识:
2024-068U
轨道中心:
EARTH
卫星名称:
星链-31610
卫星全名:
星链-31610 (STARLINK-31610 )
卫星状态:
在轨 (已飞行877 天)
发射日期:
2024-04-10 UTC
国别 :
美国 (US)
星等 :
--
轨道信息
数据来源 国际轨道数据
星历时间: 2026-09-04T07:47:07+0800
11小时前
查看轨道信息
半长轴: 6861.193km
偏心率: 0.0001353
轨道倾角: 43.002°
近地点辐角 275.579°
升交点赤经 107.388°
平近点角 84.491°
近地点: 482.127km
远地点: 483.985km
周期: 94.267分钟
每日圈数: 15.275777
详细信息
固有亮度:
5
最大亮度:
1.5
卫星平台:
Starlink v2.0 mini
覆盖范围:
全球
运营商:
太空探索技术公司
运营商所在国:
美国
制造商(研发单位):
太空探索技术公司
制造商所在国:
美国
使用方式:
暂无
卫星简介
星链(Starlink)计划是由太空探索技术公司(SpaceX)提出的一个巨型低轨卫星互联网星座项目,计划在2019年至2024年间在太空搭建由约1.2万颗卫星组成的“星链”网络,其中1584颗将部署在地球上空550千米处的近地轨道,并从2020年开始工作。该卫星仍在工作。
2D轨道图
3D轨道图
轨道高度分析图
轨道倾角分析图
轨道综合分析图
查看轨道综合分析图
交会数据列表
事件ID 空间交会对象 最接近时刻(TCA) 交会距离 交会风险概率(CRP) 交会风险指数(CRI) 操作
CDM_260905-102705-321405-947321
2026-09-05T
10:27:46+0000
1.267 km
极远距离
1.152057E-5 中风险 0.56
CDM_260905-011805-947306-801321
2026-09-05T
01:18:32+0000
1.149 km
极远距离
3.496552E-6 低风险 0.46
CDM_260905-025205-947306-801321
2026-09-05T
02:52:42+0000
1.704 km
极远距离
1.066668E-6 低风险 0.36
CDM_260905-020505-947306-801321
2026-09-05T
02:05:37+0000
1.842 km
极远距离
8.786116E-7 极低风险 0.34